Wind_Speed
16 14 13 13 13 13 12 11 7 5 7 8 9 11 12 14 12 11 11 12 12 11 10 9 9 10 9 8 8 7 8 7 7 6 6 6 5 5 5 7 8 9 10 10
17 15 15 16 15 14 14 12 8 7 8 9 10 11 12 13 13 12 12 13 14 12 11 9 9 9 10 8 7 8 8 7 7 7 7 6 5 5 6 6 8 9 10 10
18 18 18 17 16 16 14 12 11 11 11 11 11 11 12 12 14 13 13 13 14 15 13 9 9 10 10 10 9 9 8 7 8 7 7 7 6 6 6 7 8 10 10 11
20 20 19 18 17 16 15 14 13 14 14 13 13 13 11 12 13 13 13 14 15 15 13 11 10 10 9 10 9 9 8 8 7 7 7 6 6 6 7 8 9 11 11 12
21 21 21 19 17 17 16 16 16 16 16 15 15 16 14 14 13 13 13 14 15 15 14 12 11 10 10 10 9 8 8 8 7 7 7 7 7 7 8 8 9 10 12 13
23 24 23 20 19 18 17 18 18 18 17 16 15 16 14 14 14 13 13 13 14 15 14 12 10 11 10 8 7 8 8 7 7 7 7 7 7 8 8 9 9 11 13 14
25 25 23 22 21 20 20 19 19 18 17 15 15 16 14 15 15 14 14 14 14 15 14 12 11 11 10 8 8 8 8 7 7 8 8 8 8 8 9 9 10 11 13 15
26 25 23 22 21 21 20 20 19 18 16 15 15 13 12 13 14 14 14 14 13 15 14 11 11 11 10 9 8 8 9 8 8 9 9 9 8 8 9 10 10 10 12 14
26 24 23 22 21 21 21 20 19 20 19 18 16 14 14 13 14 14 15 15 14 13 12 12 11 10 9 9 9 9 9 9 9 9 8 8 9 9 8 9 10 11 12 14
26 26 24 23 23 22 21 20 21 22 21 20 18 17 15 15 15 15 16 15 13 12 12 12 11 10 9 9 10 10 11 10 10 9 9 8 9 8 8 9 10 10 12 13
27 27 26 26 24 21 21 21 22 23 23 22 20 17 16 14 15 17 17 15 14 13 12 11 11 10 9 10 10 11 11 10 10 10 10 9 8 8 9 9 10 11 12 13
27 28 28 27 24 21 21 21 22 24 24 24 24 21 19 18 18 18 17 15 13 12 10 10 11 11 10 10 11 11 10 10 10 10 10 10 10 10 10 10 10 11 12 13
27 30 29 28 27 24 22 21 22 23 24 25 25 24 22 21 20 19 18 16 14 11 10 10 12 12 11 11 11 11 10 12 12 12 11 11 11 11 12 11 12 12 13 14
28 30 30 28 26 25 23 21 21 24 26 26 26 25 24 22 21 20 20 19 15 13 12 11 12 12 11 11 11 11 12 13 13 13 13 13 13 13 13 13 13 13 14 14
30 31 31 29 28 28 27 24 22 24 25 26 25 26 24 23 23 22 22 18 14 14 13 13 13 13 12 11 11 12 13 14 14 14 14 14 14 14 14 14 15 15 15 15
33 33 33 32 31 31 30 29 26 25 25 26 25 25 24 23 22 22 20 18 15 15 15 14 14 13 12 11 12 13 14 15 15 15 15 15 14 14 14 14 15 15 16 16
36 35 35 34 33 34 35 32 30 28 27 26 26 24 25 25 24 23 22 18 16 15 16 16 16 14 14 14 13 14 15 16 16 16 15 14 14 15 15 15 15 15 15 15
39 37 36 36 36 38 35 33 32 30 29 28 27 26 25 25 25 25 22 21 18 17 16 16 17 16 17 16 15 16 16 17 16 16 15 15 15 15 15 15 15 15 15 15
40 39 37 37 38 38 37 35 34 32 32 31 30 28 26 26 25 25 24 22 20 19 18 17 18 18 18 18 17 17 17 17 17 17 16 16 15 16 15 15 15 15 15 15
42 40 40 38 38 39 36 35 35 35 34 32 31 29 28 27 26 24 23 22 21 20 19 19 19 20 20 19 19 18 18 18 18 18 17 17 16 16 15 15 14 15 15 15
44 43 41 39 39 39 36 35 36 36 35 33 33 30 30 27 25 24 24 23 21 20 19 19 20 20 20 20 20 20 20 20 19 19 19 18 18 17 16 15 15 15 16 16
45 44 42 40 39 39 35 35 36 36 35 33 31 29 28 25 25 24 22 22 21 20 19 20 20 19 20 20 20 20 20 21 20 20 19 19 18 17 16 16 16 16 16 16
45 44 43 41 39 36 36 35 35 36 35 33 31 30 28 26 26 23 22 22 23 21 20 20 20 20 20 20 20 21 21 21 20 20 19 19 18 18 18 18 18 18 18 18
43 43 42 40 39 37 36 35 33 33 34 33 31 29 28 27 26 24 23 23 23 21 20 20 21 21 21 21 21 21 21 21 21 20 20 20 19 19 19 19 18 18 18 18
40 40 40 38 37 36 35 34 32 31 31 32 31 29 29 28 26 25 22 22 21 21 21 21 21 22 22 22 22 22 22 21 21 21 20 20 19 19 19 19 19 19 19 20
38 39 38 38 37 35 34 34 32 31 32 33 33 31 29 28 26 24 23 21 21 22 22 22 22 23 23 23 23 22 21 21 21 21 20 20 20 20 19 19 19 19 19 20
Wind_Direction
226 225 223 221 217 217 218 221 224 239 263 275 286 295 301 306 310 318 328 328 327 324 332 334 332 332 332 329 331 336 335 330 322 308 305 302 293 274 249 229 220 217 216 218
227 223 222 221 219 222 225 222 223 232 245 263 280 289 295 300 306 314 324 326 328 326 326 323 324 326 331 331 325 325 330 329 321 308 300 292 282 266 244 229 221 221 223 222
225 222 224 223 222 223 226 222 218 228 242 254 266 276 282 289 298 306 313 318 328 329 326 327 327 324 325 323 322 321 321 319 313 305 302 288 275 265 248 234 229 226 229 226
222 224 225 225 226 225 222 221 222 229 241 248 259 267 269 276 291 302 308 313 325 326 325 326 323 320 323 320 313 314 312 311 306 299 299 295 276 265 257 243 238 232 233 233
222 226 228 227 227 226 224 224 226 231 241 247 254 260 264 269 280 297 304 312 320 325 325 321 318 321 318 313 306 306 305 307 305 299 297 289 272 266 264 255 246 238 240 239
222 225 227 226 226 228 227 228 230 237 244 248 253 258 261 268 275 287 303 314 320 321 318 314 315 316 314 310 308 310 311 307 307 300 294 286 274 266 264 259 251 248 245 242
225 227 229 228 227 227 229 232 235 238 243 246 250 256 268 275 275 281 296 306 313 317 316 309 309 311 307 305 310 312 312 305 306 305 296 284 277 272 265 262 258 255 249 243
226 226 229 231 232 230 231 234 237 240 241 240 244 254 266 274 281 285 296 305 311 311 309 308 313 309 308 307 310 312 312 307 305 304 299 285 277 275 272 268 261 258 253 245
227 225 226 230 232 232 230 233 236 238 238 239 242 251 262 271 287 289 293 298 304 308 309 309 312 307 307 307 309 312 311 308 304 302 297 287 281 280 276 271 265 256 252 249
225 223 222 224 228 228 228 230 233 236 237 238 244 253 265 275 281 284 285 288 296 300 305 308 307 299 296 300 304 309 307 305 303 295 290 287 285 281 276 274 271 262 256 256
222 223 220 221 224 223 224 227 233 237 237 237 242 253 263 273 279 282 281 287 296 295 296 301 303 296 297 302 302 306 307 303 301 294 287 285 285 281 280 278 273 267 264 262
219 221 221 223 223 220 223 228 235 238 239 242 244 249 259 268 277 287 285 291 291 290 291 298 300 301 303 300 299 306 306 305 304 299 292 286 285 282 284 282 281 277 272 267
214 219 219 220 221 221 224 227 233 237 239 242 245 250 258 269 278 284 290 296 295 295 294 302 301 302 305 300 299 307 305 305 307 307 299 293 291 289 283 281 281 279 276 270
216 220 221 222 223 224 227 229 234 237 238 241 245 249 255 263 273 283 292 294 301 303 308 310 308 309 304 300 303 307 306 305 306 305 302 295 293 287 283 280 279 278 276 273
218 221 221 221 220 223 228 230 233 237 241 244 247 248 253 261 270 279 288 292 295 301 303 305 307 307 305 296 300 306 311 309 307 306 305 300 294 286 282 280 278 277 275 273
219 222 222 223 223 224 228 230 231 233 238 242 246 246 249 258 266 274 285 289 291 291 295 301 303 302 298 296 301 307 310 311 309 308 306 302 296 292 285 283 282 277 275 273
221 225 226 225 226 228 229 231 234 236 239 241 243 247 250 254 264 273 280 283 281 282 289 296 299 300 302 301 301 304 306 308 309 307 305 301 295 293 288 284 283 283 280 277
224 229 231 230 228 230 232 233 236 238 239 240 240 243 251 257 264 270 275 277 278 281 287 291 293 295 297 298 298 300 301 303 305 306 303 299 297 296 292 289 286 283 282 280
226 229 232 232 232 234 233 233 235 238 239 241 241 243 249 257 262 267 271 273 275 280 282 285 288 292 293 295 296 297 296 296 298 301 302 299 296 296 295 290 286 281 282 279
227 230 232 234 235 235 235 234 235 238 240 242 243 244 250 256 261 267 271 272 273 277 277 280 284 288 290 292 293 293 291 292 293 295 297 298 296 296 295 291 286 283 282 280
227 230 233 235 236 237 236 234 236 237 240 244 246 247 252 253 258 263 268 271 272 276 276 279 283 286 289 291 292 292 291 291 291 291 292 292 294 294 295 293 291 288 285 282
226 229 232 234 236 237 236 235 236 239 243 245 248 251 254 253 255 257 263 267 269 274 277 279 282 285 288 288 289 290 291 290 291 290 289 290 291 291 292 292 291 290 286 281
225 229 231 234 237 237 235 236 237 238 241 245 249 252 256 258 259 257 263 266 269 272 275 277 280 284 287 288 288 288 289 290 290 289 289 289 290 288 288 289 289 291 290 287
225 228 231 233 234 234 234 234 236 238 240 242 245 248 253 258 259 258 262 265 268 268 272 276 279 282 285 287 287 288 287 288 288 287 288 288 288 288 287 288 287 287 289 289
225 228 230 233 233 232 232 231 232 236 237 238 243 246 249 256 261 260 263 267 267 270 274 277 280 282 285 286 286 286 286 286 286 286 286 285 285 287 287 287 287 285 286 287
228 230 232 232 230 231 232 230 233 236 239 241 244 245 249 256 261 263 265 265 268 270 273 276 279 281 282 284 285 285 285 286 285 285 284 285 286 288 289 289 288 285 286 287
Height
5894 5897 5899 5901 5902 5903 5903 5904 5904 5905 5905 5905 5905 5905 5905 5903 5903 5904 5904 5903 5902 5901 5899 5897 5896 5895 5893 5892 5891 5890 5889 5888 5888 5887 5887 5886 5886 5886 5886 5886 5887 5888 5890 5891
5892 5894 5896 5896 5898 5899 5901 5902 5902 5903 5903 5903 5904 5904 5903 5902 5902 5902 5902 5902 5900 5898 5897 5895 5895 5893 5892 5891 5890 5889 5888 5887 5886 5885 5885 5885 5884 5884 5884 5885 5886 5887 5888 5889
5887 5891 5891 5893 5895 5897 5898 5899 5901 5901 5901 5901 5902 5902 5902 5901 5900 5900 5900 5899 5898 5897 5894 5893 5893 5892 5891 5890 5889 5887 5887 5886 5885 5884 5883 5883 5883 5882 5882 5883 5884 5885 5885 5887
5883 5885 5887 5889 5892 5893 5895 5897 5898 5898 5898 5899 5900 5900 5900 5899 5899 5898 5898 5897 5896 5895 5893 5893 5892 5890 5889 5888 5887 5886 5885 5884 5883 5882 5881 5881 5881 5881 5881 5881 5881 5882 5883 5884
5879 5881 5883 5886 5889 5890 5892 5893 5894 5895 5895 5896 5897 5896 5898 5896 5896 5896 5896 5896 5895 5893 5892 5891 5890 5888 5886 5885 5884 5883 5882 5882 5881 5880 5880 5879 5879 5879 5879 5879 5879 5880 5881 5882
5874 5876 5879 5882 5884 5886 5888 5890 5891 5891 5892 5894 5894 5894 5894 5894 5894 5894 5894 5894 5893 5892 5890 5889 5888 5887 5884 5882 5881 5881 5880 5879 5879 5878 5877 5877 5877 5877 5877 5877 5877 5877 5878 5879
5869 5871 5874 5877 5880 5882 5884 5886 5887 5888 5889 5891 5891 5891 5892 5891 5891 5891 5891 5892 5891 5890 5889 5887 5886 5884 5883 5881 5879 5878 5878 5877 5876 5876 5875 5875 5875 5875 5875 5875 5875 5875 5875 5876
5863 5867 5870 5873 5876 5878 5880 5882 5884 5886 5886 5887 5887 5887 5889 5888 5887 5888 5888 5888 5888 5887 5886 5885 5883 5882 5880 5879 5877 5876 5875 5875 5874 5873 5872 5872 5872 5872 5872 5872 5872 5872 5872 5872
5858 5863 5866 5868 5871 5873 5875 5877 5880 5881 5882 5883 5884 5884 5885 5885 5885 5885 5885 5885 5885 5885 5884 5882 5881 5879 5878 5877 5876 5875 5873 5872 5871 5870 5869 5868 5869 5869 5869 5869 5868 5868 5869 5869
5852 5856 5860 5863 5865 5867 5871 5873 5874 5876 5877 5879 5880 5881 5882 5882 5883 5883 5882 5882 5882 5881 5881 5879 5878 5876 5876 5875 5874 5873 5871 5870 5869 5868 5867 5866 5866 5866 5866 5866 5865 5865 5865 5865
5846 5850 5854 5856 5859 5863 5866 5868 5870 5872 5873 5875 5876 5880 5879 5879 5879 5879 5879 5879 5878 5878 5877 5876 5875 5874 5873 5873 5872 5870 5868 5867 5866 5865 5865 5864 5864 5863 5863 5862 5862 5861 5861 5861
5840 5844 5848 5851 5855 5858 5860 5863 5866 5868 5870 5871 5872 5877 5874 5875 5876 5875 5875 5875 5875 5875 5873 5873 5871 5871 5871 5870 5869 5868 5866 5865 5864 5863 5862 5862 5861 5861 5860 5859 5859 5858 5858 5858
5834 5837 5842 5846 5851 5853 5855 5858 5861 5863 5865 5866 5867 5872 5870 5871 5872 5872 5871 5871 5870 5870 5869 5869 5868 5867 5867 5866 5866 5865 5863 5863 5862 5861 5860 5859 5858 5858 5857 5856 5856 5855 5855 5854
5829 5832 5837 5842 5846 5849 5851 5853 5856 5857 5859 5861 5863 5865 5866 5867 5868 5869 5868 5868 5867 5867 5866 5867 5866 5866 5865 5864 5864 5863 5862 5860 5859 5858 5857 5856 5855 5854 5853 5853 5852 5852 5851 5850
5823 5827 5832 5836 5840 5843 5846 5848 5850 5852 5854 5857 5859 5861 5862 5863 5865 5866 5865 5864 5864 5865 5865 5864 5864 5863 5863 5862 5861 5860 5859 5857 5856 5855 5854 5852 5851 5850 5850 5849 5848 5848 5847 5846
5817 5822 5826 5831 5834 5837 5840 5843 5845 5847 5849 5851 5854 5856 5858 5859 5860 5861 5862 5862 5861 5862 5862 5862 5861 5860 5859 5859 5859 5857 5856 5854 5853 5852 5850 5849 5848 5847 5846 5845 5844 5843 5842 5842
5811 5816 5820 5825 5829 5831 5834 5838 5840 5842 5844 5847 5849 5852 5853 5855 5856 5858 5858 5857 5857 5858 5859 5858 5858 5857 5856 5856 5855 5853 5852 5851 5850 5848 5847 5845 5844 5843 5842 5841 5840 5839 5838 5837
5806 5810 5814 5818 5823 5824 5831 5834 5835 5837 5839 5841 5844 5847 5849 5851 5852 5853 5854 5854 5854 5854 5854 5854 5854 5853 5853 5852 5850 5850 5848 5847 5846 5845 5843 5842 5841 5839 5837 5836 5835 5834 5833 5832
5800 5804 5808 5811 5814 5817 5823 5827 5830 5831 5833 5836 5838 5841 5844 5846 5847 5848 5850 5850 5850 5850 5850 5850 5850 5849 5849 5848 5847 5846 5845 5843 5842 5841 5839 5838 5836 5835 5833 5832 5831 5830 5829 5828
5793 5797 5801 5804 5807 5810 5817 5822 5823 5826 5827 5830 5833 5836 5838 5840 5842 5844 5844 5844 5845 5845 5845 5845 5845 5844 5844 5843 5842 5841 5840 5839 5838 5836 5835 5834 5832 5831 5830 5828 5827 5826 5825 5824
5785 5788 5792 5796 5799 5803 5810 5814 5817 5820 5822 5825 5827 5829 5831 5833 5836 5838 5838 5839 5839 5839 5840 5840 5840 5839 5839 5838 5837 5836 5835 5834 5832 5831 5830 5829 5828 5826 5825 5824 5822 5821 5820 5819
5777 5781 5785 5789 5792 5799 5803 5807 5810 5813 5816 5818 5821 5823 5825 5826 5829 5830 5832 5833 5834 5834 5835 5835 5834 5834 5833 5832 5831 5830 5829 5828 5827 5825 5825 5824 5823 5821 5820 5819 5818 5817 5815 5814
5768 5773 5777 5782 5787 5792 5796 5799 5803 5806 5810 5813 5815 5817 5820 5821 5823 5824 5825 5827 5828 5829 5829 5829 5829 5828 5828 5827 5826 5825 5824 5822 5821 5820 5819 5818 5817 5816 5815 5814 5813 5812 5810 5809
5760 5764 5769 5774 5778 5784 5788 5792 5796 5799 5803 5806 5809 5811 5814 5816 5817 5818 5819 5820 5821 5822 5823 5823 5823 5822 5822 5821 5820 5819 5818 5817 5815 5815 5814 5813 5812 5811 5809 5808 5807 5806 5805 5804
5753 5758 5762 5767 5771 5776 5780 5785 5789 5793 5796 5799 5802 5805 5807 5809 5810 5812 5813 5814 5815 5816 5816 5816 5816 5816 5816 5815 5814 5813 5811 5811 5810 5809 5808 5807 5806 5805 5804 5802 5801 5800 5799 5798
5746 5751 5756 5760 5765 5769 5773 5777 5782 5786 5790 5793 5796 5798 5800 5802 5804 5806 5807 5808 5809 5809 5810 5810 5810 5810 5809 5808 5807 5806 5805 5804 5804 5803 5802 5801 5800 5799 5798 5796 5795 5794 5793 5792